www.pogodaiklimat.ru

Погода и климат >> Архив погоды >> Великобритания >> Тейн-Рендж


ПОГОДА в Тейн-Рендже

  • Прогноз погоды в Тейн-Рендже
  • Монитор погоды в Тейн-Рендже

АРХИВ ПОГОДЫ в Тейн-Рендже

Время (UTC), дата Ветер
(напр.,м/с)
 
Видим.   Явления Облачность Т
(С)
Тd
(С)
f
(%)
Тe
(С)
Тes
(С)
Комфортность P
(гПа)
Po
(гПа)
Тmin
(С)
Tmax
(С)
R
(мм)
R24
(мм)
S
(см)
07 11.08 СЗ 6 40 км слаб. морось с дождем н/о +12.0 +10.3 89 +9 +9 1004.1 1003.6
08 11.08 СЗ 6 28 км слаб. дождь н/о +12.0 +10.0 88 +9 +9 1004.9 1004.5
09 11.08 СЗ 8 40 км в посл. час дождь н/о +12.0 +9.7 86 +9 +9 1005.6 1005.1
10 11.08 С 8 28 км н/о +12.1 +8.8 80 +9 +9 1006.2 1005.7
11 11.08 СЗ 5 21 км слаб. ливневой дождь н/о +12.0 +9.4 84 +9 +9 1007.0 1006.5
12 11.08 С 6 20 км в посл. час дождь н/о +12.5 +8.5 77 +10 +10 1007.4 1006.9
13 11.08 С 7 22 км н/о +12.9 +7.6 70 +10 +10 1007.8 1007.3
14 11.08 С 6 30 км н/о +13.2 +8.2 72 +11 +11 1008.1 1007.6
15 11.08 С 5 24 км слаб. ливневой дождь н/о +12.6 +7.7 72 +10 +10 1008.4 1008.0
16 11.08 С 6 30 км в посл. час дождь н/о +12.8 +7.4 70 +11 +11 1008.8 1008.3
17 11.08 С 5 30 км слаб. морось с дождем н/о +11.9 +7.5 74 +9 +9 1009.2 1008.7
18 11.08 С 4 35 км слаб. ливневой дождь н/о +11.8 +8.0 78 +10 +10 1009.6 1009.1 +13.3
19 11.08 СЗ 3 45 км в посл. час дождь н/о +11.6 +7.9 78 +10 +10 1009.9 1009.4
20 11.08 С 4 45 км н/о +11.1 +7.2 77 +9 +9 1010.2 1009.7
21 11.08 СЗ 3 40 км н/о +10.7 +7.4 80 +9 +9 1010.3 1009.9
22 11.08 СЗ 4 50 км в посл. час дождь н/о +10.5 +7.1 79 +8 +8 1010.7 1010.2
23 11.08 СЗ 3 50 км н/о +10.3 +7.1 81 +8 +8 1010.8 1010.3
00 12.08 З 3 45 км н/о +10.0 +7.7 86 +8 +8 1010.8 1010.3
01 12.08 З 3 50 км н/о +9.6 +7.4 86 +7 +7 1010.7 1010.2
02 12.08 З 3 45 км н/о +9.1 +7.0 87 +7 +7 1010.6 1010.1
03 12.08 З 4 50 км н/о +9.8 +7.2 84 +7 +7 1010.5 1010.0
04 12.08 З 3 50 км н/о +9.2 +7.1 87 +7 +7 1010.4 1009.9
05 12.08 З 4 40 км н/о +9.1 +6.9 86 +6 +6 1010.6 1010.1
06 12.08 ЮЗ 2 50 км н/о +9.4 +6.8 84 +8 +8 1010.8 1010.3 +8.7
07 12.08 З 2 50 км н/о +10.4 +6.6 77 +9 +9 1011.1 1010.6
08 12.08 З 2 45 км н/о +12.1 +8.1 77 +12 +12 1011.3 1010.8
09 12.08 З 3 30 км н/о +13.1 +7.6 69 +12 +12 1011.3 1010.8
10 12.08 Ю 2 50 км н/о +13.3 +7.4 67 +13 +13 1011.3 1010.9
11 12.08 Ю 3 40 км н/о +14.3 +6.7 60 +14 +14 1011.1 1010.6
12 12.08 Ю 3 35 км н/о +15.4 +7.3 58 +15 +15 1011.0 1010.5
13 12.08 Ю 4 45 км н/о +15.6 +6.8 56 +15 +15 1010.8 1010.3
14 12.08 ЮВ 5 35 км н/о +15.7 +7.8 59 +15 +15 1010.6 1010.2
15 12.08 ЮЗ 6 20 км слаб. ливневой дождь н/о +14.6 +8.9 69 +13 +13 1010.6 1010.2
16 12.08 З 2 40 км в посл. час дождь н/о +16.2 +7.0 54 +16 +16 1010.6 1010.1
17 12.08 ЮЗ 4 50 км н/о +15.2 +7.0 58 +14 +14 1010.5 1010.0
18 12.08 СЗ 1 45 км в посл. час дождь н/о +13.5 +10.0 79 +14 +14 1010.8 1010.3 +16.8
19 12.08 ЮЗ 2 50 км н/о +13.0 +10.3 84 +13 +13 1011.2 1010.7
20 12.08 СЗ 2 50 км н/о +11.1 +9.5 90 +10 +10 1011.4 1011.0
21 12.08 З 2 35 км н/о +10.7 +9.7 94 +10 +10 1011.6 1011.1
22 12.08 ЮЗ 2 45 км в посл. час дождь н/о +10.5 +9.8 95 +9 +9 1011.6 1011.2
23 12.08 ЮЗ 2 30 км слаб. морось с дождем н/о +10.2 +9.3 94 +9 +9 1011.7 1011.2
00 13.08 З 2 50 км в посл. час дождь н/о +9.9 +8.6 92 +9 +9 1011.6 1011.1
01 13.08 ЮЗ 2 50 км н/о +8.7 +7.6 93 +7 +7 1011.7 1011.2
02 13.08 ЮЗ 1 50 км н/о +9.3 +8.4 94 +9 +9 1011.7 1011.2
03 13.08 ЮЗ 3 40 км н/о +8.7 +7.6 93 +6 +6 1011.5 1011.0
04 13.08 З 2 50 км н/о +8.4 +7.4 93 +6 +6 1011.5 1011.1
05 13.08 ЮЗ 2 45 км н/о +7.3 +6.3 93 +5 +5 1011.5 1011.0
06 13.08 ЮЗ 2 40 км н/о +8.2 +7.6 96 +7 +7 1011.4 1010.9 +6.9
07 13.08 ЮЗ 2 29 км н/о +10.8 +8.9 88 +10 +10 1011.6 1011.1
08 13.08 ЮЗ 4 40 км н/о +11.7 +8.5 81 +10 +10 1011.8 1011.3
09 13.08 ЮЗ 5 45 км н/о +14.1 +9.1 72 +12 +12 1011.5 1011.0
10 13.08 З 5 30 км н/о +14.0 +6.8 62 +12 +12 1011.3 1010.9
11 13.08 СЗ 3 26 км н/о +15.0 +7.9 62 +14 +14 1011.2 1010.8
12 13.08 С 3 50 км в посл. час дождь н/о +14.4 +7.7 64 +14 +14 1011.1 1010.6
13 13.08 В 3 11 км слаб. ливневой дождь н/о +14.6 +8.8 68 +14 +14 1011.1 1010.6
14 13.08 В 2 30 км в посл. час дождь н/о +15.3 +8.5 64 +16 +16 1011.0 1010.5
15 13.08 СЗ 6 40 км в посл. час дождь н/о +14.5 +9.4 71 +13 +13 1011.1 1010.6
16 13.08 СЗ 5 35 км н/о +14.6 +7.3 62 +13 +13 1011.1 1010.6
17 13.08 З 4
{14}
35 км в посл. час дождь н/о +14.5 +9.3 71 +13 +13 1011.3 1010.8
18 13.08 ЮЗ 5 19 км в посл. час дождь н/о +13.3 +8.8 74 +11 +11 1011.3 1010.8 +16.0
19 13.08 З 3 30 км н/о +13.0 +8.0 72 +12 +12 1011.3 1010.8
20 13.08 З 5 50 км н/о +12.0 +7.6 74 +10 +10 1011.2 1010.8
21 13.08 З 4 40 км н/о +9.7 +6.9 83 +7 +7 1011.5 1011.0
22 13.08 З 3 45 км н/о +7.4 +5.9 90 +5 +5 1011.4 1010.9
23 13.08 ЮЗ 3 50 км н/о +7.6 +6.1 90 +5 +5 1011.4 1010.9
00 14.08 З 4 50 км н/о +7.3 +5.5 88 +4 +4 1011.2 1010.7
01 14.08 ЮЗ 5 50 км н/о +8.0 +5.9 87 +4 +4 1011.2 1010.7
02 14.08 ЮЗ 3 50 км н/о +8.0 +5.9 87 +5 +5 1011.2 1010.7
03 14.08 ЮЗ 3 45 км н/о +8.1 +6.4 89 +5 +5 1010.8 1010.3
04 14.08 ЮЗ 4 40 км н/о +8.1 +6.5 90 +5 +5 1010.3 1009.8
05 14.08 ЮЗ 4 50 км н/о +7.9 +6.5 91 +5 +5 1009.9 1009.4
06 14.08 ЮЗ 3 40 км н/о +8.6 +7.4 92 +6 +6 1009.6 1009.1 +6.9
07 14.08 Ю 2 35 км н/о +10.5 +8.3 86 +9 +9 1009.2 1008.7
08 14.08 ЮЗ 3 40 км н/о +11.3 +8.8 85 +10 +10 1009.0 1008.5
09 14.08 Ю 3 40 км н/о +12.6 +9.3 80 +11 +11 1008.5 1008.1
10 14.08 Ю 2 29 км н/о +13.5 +9.2 75 +13 +13 1008.2 1007.7
11 14.08 В 3 40 км слаб. ливневой дождь н/о +13.3 +7.9 70 +12 +12 1007.6 1007.1
12 14.08 ЮВ 3 45 км в посл. час дождь н/о +13.9 +8.2 68 +13 +13 1007.2 1006.7
13 14.08 В 3 30 км н/о +15.2 +8.8 66 +15 +15 1006.6 1006.1
14 14.08 В 4 45 км н/о +15.2 +8.9 66 +14 +14 1005.8 1005.3
15 14.08 Ю 4 45 км н/о +15.4 +10.5 73 +14 +14 1005.1 1004.7
16 14.08 В 2 40 км н/о +15.5 +11.1 75 +16 +16 1004.3 1003.8
17 14.08 В 3 50 км н/о +15.3 +10.6 74 +15 +15 1003.3 1002.8
18 14.08 СВ 4 45 км н/о +14.8 +11.5 81 +14 +14 1002.4 1001.9 +16.0
19 14.08 ЮВ 3 50 км слаб. ливневой дождь н/о +15.7 +11.5 76 +15 +15 1001.5 1001.0
20 14.08 ЮЗ 2 35 км слаб. ливневой дождь н/о +14.1 +12.4 89 +14 +14 1001.3 1000.9
21 14.08 ЮВ 4 14 км дождь н/о +13.7 +12.2 91 +12 +12 1001.0 1000.6
22 14.08 ЮВ 2 12 км дождь н/о +13.0 +12.4 96 +12 +12 1000.7 1000.2
23 14.08 В 3 16 км дождь н/о +13.1 +12.7 97 +12 +12 1000.1 999.6
00 15.08 ЮВ 3 8000 м слаб. дождь н/о +13.4 +13.0 97 +12 +12 999.4 998.9
01 15.08 ЮВ 2 5000 м морось с дождем н/о +13.4 +13.0 97 +13 +13 998.9 998.4
02 15.08 ЮЗ 2 5000 м в посл. час дождь н/о +12.7 +12.2 97 +12 +12 998.5 998.0
03 15.08 З 2 6000 м в посл. час туман н/о +12.4 +12.1 98 +11 +11 998.4 997.9
04 15.08 ЮЗ 2 30 км в посл. час туман н/о +12.6 +12.4 99 +12 +12 998.4 997.9
05 15.08 ЮЗ 2 29 км н/о +12.4 +12.1 98 +11 +11 998.8 998.4
06 15.08 ЮЗ 2 30 км н/о +12.5 +12.3 99 +11 +11 999.4 998.9 +11.5
07 15.08 З 4 50 км н/о +13.9 +12.7 92 +12 +12 1000.4 999.9
08 15.08 СЗ 8
{13}
50 км н/о +13.3 +11.2 87 +10 +10 1002.0 1001.6
09 15.08 СЗ 8
{14}
50 км н/о +13.2 +10.5 84 +10 +10 1003.3 1002.8
10 15.08 СЗ 9
{13}
40 км н/о +14.2 +10.5 78 +12 +12 1004.1 1003.6
11 15.08 СЗ 6 50 км слаб. ливневой дождь н/о +13.9 +11.1 83 +12 +12 1005.4 1004.9
12 15.08 З 7
{13}
50 км в посл. час дождь н/о +14.7 +8.3 65 +13 +13 1006.0 1005.6
13 15.08 СЗ 7 50 км н/о +14.3 +8.0 66 +12 +12 1006.8 1006.4
14 15.08 З 9
{13}
30 км н/о +16.4 +7.0 54 +15 +15 1007.0 1006.5
15 15.08 З 8 35 км н/о +16.6 +7.5 55 +15 +15 1007.1 1006.6
16 15.08 З 6 30 км н/о +16.8 +8.6 58 +16 +16 1007.6 1007.1
17 15.08 СЗ 5 45 км н/о +15.6 +7.0 57 +14 +14 1007.6 1007.1
18 15.08 СЗ 4 50 км н/о +16.2 +7.1 55 +16 +16 1007.8 1007.3 +17.0
19 15.08 ЮЗ 4 50 км н/о +14.9 +7.2 60 +14 +14 1007.9 1007.4
20 15.08 Ю 2 50 км н/о +13.9 +7.8 67 +13 +13 1007.7 1007.3
21 15.08 Ю 2 45 км н/о +13.1 +8.5 74 +12 +12 1007.7 1007.2
22 15.08 ЮЗ 5 50 км н/о +13.3 +9.1 76 +11 +11 1007.0 1006.5
23 15.08 ЮЗ 4 45 км н/о +12.7 +9.6 81 +11 +11 1006.5 1006.0
00 16.08 Ю 4 50 км н/о +12.8 +10.6 86 +11 +11 1005.6 1005.1
01 16.08 Ю 5 50 км слаб. ливневой дождь н/о +12.6 +11.1 91 +10 +10 1004.9 1004.5
02 16.08 ЮВ 3 50 км в посл. час дождь н/о +12.9 +11.1 89 +11 +11 1004.1 1003.6
03 16.08 ЮВ 2 50 км в посл. час дождь н/о +13.1 +11.0 87 +12 +12 1003.1 1002.7
04 16.08 Ю 4 45 км слаб. морось с дождем н/о +14.1 +12.0 87 +13 +13 1001.9 1001.4
05 16.08 Ю 5 30 км слаб. дождь н/о +13.8 +12.3 91 +12 +12 1001.0 1000.6
06 16.08 ЮВ 4 18 км дождь н/о +13.9 +12.8 93 +12 +12 1000.0 999.5 +12.5
07 16.08 Ю 6 14 км дождь н/о +14.2 +12.8 91 +12 +12 999.2 998.7
08 16.08 ЮВ 6 27 км слаб. морось с дождем н/о +14.1 +13.1 94 +12 +12 997.9 997.5
09 16.08 ЮВ 6 50 км в посл. час дождь н/о +14.9 +13.0 88 +13 +13 996.4 995.9
10 16.08 Ю 7 50 км н/о +16.5 +13.0 80 +15 +15 995.1 994.7
11 16.08 Ю 9 50 км н/о +17.7 +12.8 73 +17 +17 993.7 993.2
12 16.08 Ю 8 45 км в посл. час дождь н/о +18.6 +14.0 75 +18 +18 993.0 992.6
13 16.08 ЮЗ 6 50 км н/о +19.2 +14.1 72 +20 +20 992.4 991.9
14 16.08 ЮЗ 8
{14}
50 км н/о +20.4 +14.6 69 +22 +22 комфорт 991.8 991.3
15 16.08 Ю 6 50 км в посл. час дождь н/о +19.1 +15.5 80 +20 +20 991.4 991.0
16 16.08 З 6 45 км н/о +20.1 +13.5 66 +22 +22 комфорт 991.4 990.9
17 16.08 З 5 40 км н/о +18.6 +12.1 66 +19 +19 991.3 990.9
18 16.08 Ю 5 35 км н/о +17.8 +12.5 71 +17 +17 991.5 991.1 +21.5
19 16.08 ЮЗ 6 40 км н/о +16.4 +12.2 76 +15 +15 991.3 990.8
20 16.08 Ю 4 40 км н/о +15.5 +11.2 76 +15 +15 991.1 990.7
21 16.08 ЮЗ 4 50 км н/о +14.1 +11.5 84 +13 +13 991.2 990.7
22 16.08 ЮЗ 4 30 км н/о +14.7 +11.4 81 +14 +14 991.0 990.5
23 16.08 Ю 3 50 км н/о +14.4 +11.8 84 +14 +14 990.4 990.0
00 17.08 Ю 4 30 км н/о +12.5 +10.9 90 +11 +11 989.8 989.3
01 17.08 Ю 3 26 км н/о +11.6 +10.5 93 +10 +10 989.7 989.3
02 17.08 Ю 3 30 км н/о +12.1 +11.4 95 +11 +11 989.1 988.7
03 17.08 Ю 3 20 км в посл. час дождь н/о +12.7 +11.7 94 +11 +11 988.8 988.3
04 17.08 Ю 2 25 км н/о +12.2 +11.5 95 +11 +11 988.3 987.8
05 17.08 Ю 1 23 км слаб. ливневой дождь н/о +12.1 +11.6 97 +12 +12 988.4 987.9
06 17.08 ЮЗ 5 50 км в посл. час дождь н/о +12.7 +11.2 91 +11 +11 989.1 988.6 +10.6
07 17.08 ЮЗ 4 50 км н/о +12.5 +9.9 84 +11 +11 989.7 989.3
08 17.08 ЮЗ 5 30 км н/о +14.5 +10.7 78 +13 +13 990.0 989.5
09 17.08 ЮЗ 6 30 км н/о +15.4 +9.8 69 +14 +14 989.9 989.5
10 17.08 ЮЗ 7 35 км н/о +16.2 +9.7 65 +15 +15 990.4 989.9
11 17.08 ЮЗ 6 45 км н/о +14.9 +8.3 65 +13 +13 990.8 990.3
12 17.08 ЮЗ 5 40 км в посл. час дождь н/о +13.4 +10.0 80 +12 +12 991.3 990.8
13 17.08 ЮЗ 7 35 км слаб. ливневой дождь н/о +13.2 +10.5 84 +11 +11 991.3 990.8
14 17.08 ЮЗ 6 30 км в посл. час дождь н/о +16.1 +9.0 63 +15 +15 991.2 990.7
15 17.08 ЮЗ 8 24 км в посл. час дождь н/о +16.1 +9.0 63 +15 +15 991.2 990.7
16 17.08 ЮЗ 9
{13}
50 км н/о +16.6 +8.4 58 +15 +15 990.8 990.3
17 17.08 ЮЗ 7
{13}
30 км н/о +15.2 +8.2 63 +13 +13 990.7 990.3
18 17.08 ЮЗ 7
{13}
20 км слаб. ливневой дождь н/о +14.6 +8.9 69 +13 +13 991.0 990.5 +17.6
19 17.08 ЮЗ 8
{13}
50 км в посл. час дождь н/о +14.2 +8.9 70 +12 +12 990.8 990.3
20 17.08 ЮЗ 8 30 км н/о +14.0 +9.2 73 +12 +12 990.3 989.9
21 17.08 Ю 7 30 км н/о +13.8 +9.1 73 +11 +11 990.0 989.6
22 17.08 Ю 6
{14}
30 км н/о +13.6 +8.9 73 +11 +11 989.9 989.4
23 17.08 Ю 7 50 км н/о +13.6 +9.0 74 +11 +11 989.5 989.0
00 18.08 Ю 6 50 км н/о +13.1 +9.3 78 +11 +11 989.1 988.6
01 18.08 Ю 5 40 км н/о +13.2 +9.4 78 +11 +11 988.9 988.4
02 18.08 Ю 3 45 км н/о +12.5 +9.7 83 +11 +11 988.5 988.1
03 18.08 Ю 5 50 км н/о +13.4 +9.6 78 +11 +11 988.1 987.6
04 18.08 ЮЗ 8 50 км н/о +13.3 +10.2 81 +11 +11 987.9 987.4
05 18.08 Ю 5 50 км н/о +12.4 +10.1 86 +10 +10 987.8 987.3
06 18.08 Ю 6 13 км слаб. ливневой дождь н/о +12.8 +11.5 92 +10 +10 987.7 987.2 +12.2
07 18.08 ЮЗ 2 50 км в посл. час дождь н/о +12.2 +11.5 95 +11 +11 987.5 987.0
08 18.08 Ю 7 30 км н/о +14.6 +11.2 80 +13 +13 987.4 987.0

 

Местоположение метеостанции Тейн-Рендж (Великобритания): широта 57.82 долгота -3.97 высота над уровнем моря 4 м.

В архиве по умолчанию представлена погода в Тейн-Рендже за последнюю неделю. Архивные данные за месяц целиком и за предыдущие месяцы, начиная с января 2011 года, Вы можете получить, выбрав интересующий диапазон дат из раскрывающегося списка и нажав кнопку "Ввод!".


*Определитесь, кто Вы:
робот инопланетянин человек

Внимание! Время в таблицах - всемирное. Для получения местного времени необходимо прибавить поправку, которая равна 0 ч.

Смотрите также архив погоды в соседних городах и на ближайших метеорологических станциях:

Погода в Кинлоссе (Великобритания) (30 км)
Погода в Лоссимуте (Великобритания) (40 км)
Погода на Озере Гласкарнок (Великобритания) (55 км)
Погода на Алтнахарре (Великобритания) (58 км)
Погода на Авморе (Великобритания) (69 км)
Погода на Кайрнгорме (Великобритания) (80 км)
Погода в Уике (Великобритания) (87 км)
Погода в Олтбее (Великобритания) (98 км)
Погода в Абойне (Великобритания) (107 км)
Погода на Кэрнуэлле (Великобритания) (110 км)

Пояснения к столбцам:

Ветер - указаны скорость ветра в м/с - средняя за 10 мин, порывы в срок и между сроками (в фигурных скобках) и направление, откуда дует ветер: С - северный, СВ - северо-восточный, В - восточный, ЮВ - юго-восточный, Ю - южный, ЮЗ - юго-западный, З - западный, СЗ - северо-западный.
Видимость - горизонтальная дальность видимости в метрах или километрах. При видимости от 1 до 10 км при отсутствии осадков обычно наблюдается дымка, при ухудшении видимости до 1 км и менее - туман. В сухую погоду видимость может ухудшаться дымом, пылью или мглою.
Явления - указаны атмосферные явления, наблюдавшиеся в срок или в последний час перед сроком; фигурными скобками обозначены явления, наблюдавшиеся между сроками (за 1-3 часа до срока); квадратными скобками обозначены град или гололедные отложения с указанием их диаметра в мм.
Облачность - указаны через наклонную черту общая и нижняя облачность в баллах и высота нижней границы облаков в метрах; квадратными скобками обозначены формы облаков: Ci - перистые, Cs - перисто-слоистые, Cc - перисто-кучевые, Ac - высококучевые, As - высокослоистые, Sc - слоисто-кучевые, Ns - слоисто-дождевые, Cu - кучевые, Cb - кучево-дождевые. Подробнее классификацию облаков см. в Атласе облаков (PDF).
T - Температура воздуха - температура, измеренная на высоте 2 м над землей.
Td - Температура точки росы - температура, при понижении до которой содержащийся в воздухе водяной пар достигнет насыщения.
f - Относительная влажность воздуха - влажноcть воздуха, измеренная на высоте 2 м над землей.
Te - Эффективная температура - температура, которую ощущает одетый по сезону человек в тени. Характеристика душности погоды. При расчете учитывается влияние влажности воздуха и скорости ветра на теплоощущения человека.
Tes - Эффективная температура на солнце - температура, которую ощущает человек, с поправкой на солнечный нагрев. Характеристика знойности погоды. Зависит от высоты солнца над горизонтом, облачности и скорости ветра. Ночью, в пасмурную погоду, а также при ветре 12 м/с и более поправка равна нулю.
P - Атмосферное давление - приведенное к уровню моря атмосферное давление.
Po - Атмосферное давление - измеренное на уровне метеостанции атмосферное давление.
Tmin - Минимальная температура - минимум температуры воздуха на высоте 2 м над землей.
Tmax - Максимальная температура - максимум температуры воздуха на высоте 2 м над землей.
R - Количество осадков - Количество выпавших осадков за период времени, мм. При наведении курсора мыши на число - период времени, за который выпало указанное количество осадков.
R24 - Количество осадков - Количество выпавших осадков за 24 часа, мм.
S - Снежный покров - Высота снежного покрова, см. При наведении курсора мыши на число - состояние снежного покрова и степень покрытия местности в баллах.